sat.trackr.live / text

‹ back to catalog

STARLINK-36390

NORAD 67886 · 2026-035H

PAYLOAD ACTIVE UNKNOWN

§ Identity

Operator
Country
US
Launch date
2026-02-21
Launch site
AFWTR
Launch vehicle
Mass (kg)
RCS (m²)

Purposes: comms

External: N2YO · Heavens-Above · Gunter

§ Orbital elements

Epoch: 2026-05-25T02:11:30.268320Z

Period
93.91 min
Inclination
97.2847°
Eccentricity
0.0001470
Mean motion
15.33457274 rev/d
Perigee alt
464.5 km
Apogee alt
466.5 km
Semi-major
6,843.6 km
B*
1.6898e-3
RAAN
78.5688°
Arg perigee
104.5370°
Mean anomaly
255.6036°
Rev number
1,569

§ Raw data

STARLINK-363901 67886U 26035H   26145.09132255  .00054898  00000+0  16898-2 0  99932 67886  97.2847  78.5688 0001470 104.5370 255.6036 15.33457274 15697

JSON: /api/v1/satellites/67886 · /tle

For live sub-satellite position, see the globe view (requires WebGL).

§ Visibility from observer

Set your observer location to see the next 7 days of passes ≥ 10°. The values pass through the URL so the page stays shareable.

No JS? Fill the form by hand. The geolocation button needs JavaScript.